Location: Mercogliano
(40.9167°N, 14.7333°E)
Time: 21:42:47
(UTC+00:00)

CZ-2C R/B - Pass Details

Date: 18 January 2021
Orbit: 785 x 870 km, 98.2° (Epoch: 06 March)

Event Time Altitude Azimuth Distance (km) Brightness Sun altitude
Exits shadow 16:42:33 10° 72° (ENE) 2,538 4.5 -8.0°
Reaches altitude 10° 16:43:07 10° 78° (ENE) 2,498 4.5 -8.1°
Maximum altitude 16:44:00 10° 87° (E) 2,473 4.5 -8.2°
Drops below altitude 10° 16:44:54 10° 97° (E) 2,501 4.6 -8.4°
Sets 16:49:57 0° 137° (SE) 3,441 5.6 -9.3°
